#datetime,building,power
2023-10-16T00:00:00,pth,3.60
2023-10-16T00:01:00,pth,1.20
2023-10-16T00:03:00,pth,3.60
2023-10-16T00:05:00,pth,3.60
2023-10-16T00:06:00,pth,1.20
2023-10-16T00:08:00,pth,3.60
2023-10-16T00:10:00,pth,2.40
2023-10-16T00:11:00,pth,1.20
2023-10-16T00:13:00,pth,3.60
2023-10-16T00:15:00,pth,2.40
2023-10-16T00:17:00,pth,3.60
2023-10-16T00:19:00,pth,2.40
2023-10-16T00:21:00,pth,2.40
2023-10-16T00:23:00,pth,3.60
2023-10-16T00:25:00,pth,2.40
2023-10-16T00:26:00,pth,2.40
2023-10-16T00:28:00,pth,2.40
2023-10-16T00:29:00,pth,1.20
2023-10-16T00:31:00,pth,2.40
2023-10-16T00:32:00,pth,1.20
2023-10-16T00:34:00,pth,3.60
2023-10-16T00:35:00,pth,1.20
2023-10-16T00:36:00,pth,1.20
2023-10-16T00:38:00,pth,3.60
2023-10-16T00:39:00,pth,1.20
2023-10-16T00:40:00,pth,1.20
2023-10-16T00:42:00,pth,2.40
2023-10-16T00:43:00,pth,1.20
2023-10-16T00:45:00,pth,3.60
2023-10-16T00:46:00,pth,1.20
2023-10-16T00:48:00,pth,2.40
2023-10-16T00:50:00,pth,2.40
2023-10-16T00:52:00,pth,3.60
2023-10-16T00:53:00,pth,1.20
2023-10-16T00:55:00,pth,2.40
2023-10-16T00:56:00,pth,1.20
2023-10-16T00:58:00,pth,1.20
2023-10-16T01:00:00,pth,3.60
2023-10-16T01:02:00,pth,2.40
2023-10-16T01:03:00,pth,1.20
2023-10-16T01:05:00,pth,2.40
2023-10-16T01:07:00,pth,2.40
2023-10-16T01:08:00,pth,1.20
2023-10-16T01:10:00,pth,2.40
2023-10-16T01:11:00,pth,1.20
2023-10-16T01:13:00,pth,2.40
2023-10-16T01:14:00,pth,1.20
2023-10-16T01:15:00,pth,1.20
2023-10-16T01:17:00,pth,2.40
2023-10-16T01:19:00,pth,2.40
2023-10-16T01:21:00,pth,2.40
2023-10-16T01:24:00,pth,2.40
2023-10-16T01:26:00,pth,2.40
2023-10-16T01:28:00,pth,2.40
2023-10-16T01:30:00,pth,2.40
2023-10-16T01:32:00,pth,1.20
2023-10-16T01:34:00,pth,2.40
2023-10-16T01:35:00,pth,2.40
2023-10-16T01:37:00,pth,4.80
2023-10-16T01:38:00,pth,2.40
2023-10-16T01:40:00,pth,3.60
2023-10-16T01:43:00,pth,2.40
2023-10-16T01:45:00,pth,3.60
2023-10-16T01:46:00,pth,1.20
2023-10-16T01:48:00,pth,2.40
2023-10-16T01:49:00,pth,1.20
2023-10-16T01:50:00,pth,1.20
2023-10-16T01:51:00,pth,1.20
2023-10-16T01:53:00,pth,2.40
2023-10-16T01:55:00,pth,2.40
2023-10-16T01:57:00,pth,2.40
2023-10-16T01:59:00,pth,2.40
2023-10-16T02:01:00,pth,2.40
2023-10-16T02:02:00,pth,1.20
2023-10-16T02:03:00,pth,1.20
2023-10-16T02:05:00,pth,2.40
2023-10-16T02:07:00,pth,2.40
2023-10-16T02:09:00,pth,2.40
2023-10-16T02:11:00,pth,2.40
2023-10-16T02:12:00,pth,1.20
2023-10-16T02:14:00,pth,2.40
2023-10-16T02:16:00,pth,2.40
2023-10-16T02:18:00,pth,2.40
2023-10-16T02:20:00,pth,2.40
2023-10-16T02:22:00,pth,3.60
2023-10-16T02:24:00,pth,1.20
2023-10-16T02:26:00,pth,2.40
2023-10-16T02:28:00,pth,2.40
2023-10-16T02:29:00,pth,1.20
2023-10-16T02:31:00,pth,2.40
2023-10-16T02:33:00,pth,2.40
2023-10-16T02:35:00,pth,2.40
2023-10-16T02:37:00,pth,2.40
2023-10-16T02:39:00,pth,2.40
2023-10-16T02:40:00,pth,1.20
2023-10-16T02:42:00,pth,3.60
2023-10-16T02:44:00,pth,4.80
2023-10-16T02:45:00,pth,2.40
2023-10-16T02:47:00,pth,2.40
2023-10-16T02:49:00,pth,2.40
2023-10-16T02:51:00,pth,2.40
2023-10-16T02:53:00,pth,2.40
2023-10-16T02:55:00,pth,2.40
2023-10-16T02:57:00,pth,1.20
2023-10-16T02:58:00,pth,1.20
2023-10-16T03:00:00,pth,2.40
2023-10-16T03:02:00,pth,1.20
2023-10-16T03:03:00,pth,1.20
2023-10-16T03:05:00,pth,2.40
2023-10-16T03:06:00,pth,1.20
2023-10-16T03:07:00,pth,1.20
2023-10-16T03:09:00,pth,2.40
2023-10-16T03:10:00,pth,1.20
2023-10-16T03:12:00,pth,2.40
2023-10-16T03:14:00,pth,2.40
2023-10-16T03:15:00,pth,2.40
2023-10-16T03:17:00,pth,2.40
2023-10-16T03:19:00,pth,2.40
2023-10-16T03:21:00,pth,2.40
2023-10-16T03:23:00,pth,2.40
2023-10-16T03:25:00,pth,2.40
2023-10-16T03:26:00,pth,1.20
2023-10-16T03:28:00,pth,2.40
2023-10-16T03:29:00,pth,1.20
2023-10-16T03:31:00,pth,2.40
2023-10-16T03:32:00,pth,1.20
2023-10-16T03:33:00,pth,1.20
2023-10-16T03:35:00,pth,3.60
2023-10-16T03:36:00,pth,1.20
2023-10-16T03:38:00,pth,2.40
2023-10-16T03:40:00,pth,2.40
2023-10-16T03:41:00,pth,1.20
2023-10-16T03:42:00,pth,2.40
2023-10-16T03:44:00,pth,3.60
2023-10-16T03:45:00,pth,2.40
2023-10-16T03:46:00,pth,2.40
2023-10-16T03:47:00,pth,2.40
2023-10-16T03:49:00,pth,2.40
2023-10-16T03:50:00,pth,1.20
2023-10-16T03:52:00,pth,2.40
2023-10-16T03:53:00,pth,1.20
2023-10-16T03:55:00,pth,1.20
2023-10-16T03:57:00,pth,2.40
2023-10-16T03:58:00,pth,1.20
2023-10-16T04:00:00,pth,2.40
2023-10-16T04:02:00,pth,2.40
2023-10-16T04:03:00,pth,1.20
2023-10-16T04:05:00,pth,2.40
2023-10-16T04:06:00,pth,1.20
2023-10-16T04:08:00,pth,2.40
2023-10-16T04:10:00,pth,2.40
2023-10-16T04:12:00,pth,2.40
2023-10-16T04:13:00,pth,1.20
2023-10-16T04:14:00,pth,1.20
2023-10-16T04:15:00,pth,1.20
2023-10-16T04:17:00,pth,2.40
2023-10-16T04:19:00,pth,2.40
2023-10-16T04:20:00,pth,1.20
2023-10-16T04:22:00,pth,2.40
2023-10-16T04:23:00,pth,1.20
2023-10-16T04:25:00,pth,2.40
2023-10-16T04:27:00,pth,2.40
2023-10-16T04:28:00,pth,1.20
2023-10-16T04:30:00,pth,1.20
2023-10-16T04:32:00,pth,2.40
2023-10-16T04:34:00,pth,2.40
2023-10-16T04:35:00,pth,1.20
2023-10-16T04:37:00,pth,2.40
2023-10-16T04:39:00,pth,4.80
2023-10-16T04:41:00,pth,3.60
2023-10-16T04:42:00,pth,2.40
2023-10-16T04:44:00,pth,2.40
2023-10-16T04:45:00,pth,1.20
2023-10-16T04:47:00,pth,2.40
2023-10-16T04:49:00,pth,2.40
2023-10-16T04:50:00,pth,1.20
2023-10-16T04:52:00,pth,2.40
2023-10-16T04:53:00,pth,1.20
2023-10-16T04:55:00,pth,2.40
2023-10-16T04:56:00,pth,1.20
2023-10-16T04:58:00,pth,1.20
2023-10-16T04:59:00,pth,1.20
2023-10-16T05:00:00,pth,1.20
2023-10-16T05:02:00,pth,2.40
2023-10-16T05:04:00,pth,1.20
2023-10-16T05:06:00,pth,2.40
2023-10-16T05:07:00,pth,1.20
2023-10-16T05:09:00,pth,2.40
2023-10-16T05:10:00,pth,1.20
2023-10-16T05:12:00,pth,2.40
2023-10-16T05:14:00,pth,2.40
2023-10-16T05:16:00,pth,1.20
2023-10-16T05:17:00,pth,1.20
2023-10-16T05:18:00,pth,1.20
2023-10-16T05:20:00,pth,2.40
2023-10-16T05:22:00,pth,2.40
2023-10-16T05:23:00,pth,1.20
2023-10-16T05:25:00,pth,2.40
2023-10-16T05:27:00,pth,4.80
2023-10-16T05:29:00,pth,3.60
2023-10-16T05:31:00,pth,4.80
2023-10-16T05:32:00,pth,1.20
2023-10-16T05:34:00,pth,1.20
2023-10-16T05:35:00,pth,1.20
2023-10-16T05:37:00,pth,2.40
2023-10-16T05:38:00,pth,2.40
2023-10-16T05:40:00,pth,2.40
2023-10-16T05:42:00,pth,2.40
2023-10-16T05:44:00,pth,1.20
2023-10-16T05:46:00,pth,2.40
2023-10-16T05:48:00,pth,2.40
2023-10-16T05:49:00,pth,1.20
2023-10-16T05:50:00,pth,1.20
2023-10-16T05:51:00,pth,1.20
2023-10-16T05:53:00,pth,2.40
2023-10-16T05:55:00,pth,2.40
2023-10-16T05:57:00,pth,2.40
2023-10-16T05:59:00,pth,1.20
2023-10-16T06:01:00,pth,2.40
2023-10-16T06:03:00,pth,2.40
2023-10-16T06:05:00,pth,2.40
2023-10-16T06:07:00,pth,1.20
2023-10-16T06:08:00,pth,1.20
2023-10-16T06:10:00,pth,2.40
2023-10-16T06:11:00,pth,1.20
2023-10-16T06:13:00,pth,3.60
2023-10-16T06:15:00,pth,3.60
2023-10-16T06:17:00,pth,4.80
2023-10-16T06:19:00,pth,2.40
2023-10-16T06:21:00,pth,2.40
2023-10-16T06:23:00,pth,2.40
2023-10-16T06:24:00,pth,1.20
2023-10-16T06:26:00,pth,2.40
2023-10-16T06:27:00,pth,1.20
2023-10-16T06:29:00,pth,2.40
2023-10-16T06:31:00,pth,2.40
2023-10-16T06:33:00,pth,2.40
2023-10-16T06:35:00,pth,2.40
2023-10-16T06:36:00,pth,1.20
2023-10-16T06:38:00,pth,2.40
2023-10-16T06:40:00,pth,2.40
2023-10-16T06:42:00,pth,2.40
2023-10-16T06:44:00,pth,3.60
2023-10-16T06:46:00,pth,2.40
2023-10-16T06:48:00,pth,2.40
2023-10-16T06:50:00,pth,2.40
2023-10-16T06:52:00,pth,2.40
2023-10-16T06:53:00,pth,1.20
2023-10-16T06:54:00,pth,2.40
2023-10-16T06:56:00,pth,2.40
2023-10-16T06:58:00,pth,3.60
2023-10-16T07:00:00,pth,4.80
2023-10-16T07:01:00,pth,2.40
2023-10-16T07:03:00,pth,4.80
2023-10-16T07:05:00,pth,3.60
2023-10-16T07:06:00,pth,1.20
2023-10-16T07:08:00,pth,2.40
2023-10-16T07:10:00,pth,3.60
2023-10-16T07:12:00,pth,2.40
2023-10-16T07:14:00,pth,3.60
2023-10-16T07:15:00,pth,1.20
2023-10-16T07:17:00,pth,3.60
2023-10-16T07:19:00,pth,2.40
2023-10-16T07:20:00,pth,2.40
2023-10-16T07:21:00,pth,1.20
2023-10-16T07:23:00,pth,2.40
2023-10-16T07:25:00,pth,3.60
2023-10-16T07:26:00,pth,1.20
2023-10-16T07:28:00,pth,2.40
2023-10-16T07:30:00,pth,3.60
2023-10-16T07:31:00,pth,1.20
2023-10-16T07:33:00,pth,2.40
2023-10-16T07:35:00,pth,3.60
2023-10-16T07:37:00,pth,2.40
2023-10-16T07:38:00,pth,1.20
2023-10-16T07:40:00,pth,2.40
2023-10-16T07:41:00,pth,1.20
2023-10-16T07:43:00,pth,2.40
2023-10-16T07:45:00,pth,3.60
2023-10-16T07:46:00,pth,2.40
2023-10-16T07:47:00,pth,2.40
2023-10-16T07:49:00,pth,3.60
2023-10-16T07:50:00,pth,2.40
2023-10-16T07:51:00,pth,1.20
2023-10-16T07:53:00,pth,3.60
2023-10-16T07:55:00,pth,4.80
2023-10-16T07:56:00,pth,1.20
2023-10-16T07:58:00,pth,4.80
2023-10-16T08:01:00,pth,2.40
2023-10-16T08:03:00,pth,1.20
2023-10-16T08:05:00,pth,2.40
2023-10-16T08:06:00,pth,1.20
2023-10-16T08:08:00,pth,1.20
2023-10-16T08:09:00,pth,1.20
2023-10-16T08:10:00,pth,1.20
2023-10-16T08:12:00,pth,1.20
2023-10-16T08:14:00,pth,2.40
2023-10-16T08:15:00,pth,1.20
2023-10-16T08:16:00,pth,1.20
2023-10-16T08:18:00,pth,1.20
2023-10-16T08:20:00,pth,1.20
2023-10-16T08:22:00,pth,2.40
2023-10-16T08:24:00,pth,1.20
2023-10-16T08:26:00,pth,2.40
2023-10-16T08:27:00,pth,1.20
2023-10-16T08:29:00,pth,1.20
2023-10-16T08:31:00,pth,3.60
2023-10-16T08:33:00,pth,3.60
2023-10-16T08:35:00,pth,3.60
2023-10-16T08:37:00,pth,1.20
2023-10-16T08:38:00,pth,1.20
2023-10-16T08:40:00,pth,2.40
2023-10-16T08:42:00,pth,1.20
2023-10-16T08:43:00,pth,1.20
2023-10-16T08:45:00,pth,2.40
2023-10-16T08:47:00,pth,1.20
2023-10-16T08:49:00,pth,2.40
2023-10-16T08:51:00,pth,1.20
2023-10-16T08:52:00,pth,1.20
2023-10-16T08:54:00,pth,1.20
2023-10-16T08:56:00,pth,1.20
2023-10-16T08:58:00,pth,1.20
2023-10-16T09:00:00,pth,2.40
2023-10-16T09:02:00,pth,1.20
2023-10-16T09:03:00,pth,1.20
2023-10-16T09:05:00,pth,1.20
2023-10-16T09:07:00,pth,1.20
2023-10-16T09:08:00,pth,1.20
2023-10-16T09:10:00,pth,1.20
2023-10-16T09:12:00,pth,1.20
2023-10-16T09:14:00,pth,6.00
2023-10-16T09:16:00,pth,8.40
2023-10-16T09:18:00,pth,9.60
2023-10-16T09:20:00,pth,7.20
2023-10-16T09:21:00,pth,3.60
2023-10-16T09:22:00,pth,2.40
2023-10-16T09:24:00,pth,1.20
2023-10-16T09:25:00,pth,1.20
2023-10-16T09:27:00,pth,2.40
2023-10-16T09:28:00,pth,1.20
2023-10-16T09:29:00,pth,1.20
2023-10-16T09:31:00,pth,2.40
2023-10-16T09:33:00,pth,2.40
2023-10-16T09:36:00,pth,2.40
2023-10-16T09:38:00,pth,2.40
2023-10-16T09:39:00,pth,1.20
2023-10-16T09:41:00,pth,3.60
2023-10-16T09:42:00,pth,1.20
2023-10-16T09:44:00,pth,3.60
2023-10-16T09:46:00,pth,2.40
2023-10-16T09:47:00,pth,1.20
2023-10-16T09:48:00,pth,1.20
2023-10-16T09:50:00,pth,2.40
2023-10-16T09:53:00,pth,2.40
2023-10-16T09:55:00,pth,2.40
2023-10-16T09:56:00,pth,1.20
2023-10-16T09:58:00,pth,1.20
2023-10-16T09:59:00,pth,1.20
2023-10-16T10:00:00,pth,1.20
2023-10-16T10:02:00,pth,4.80
2023-10-16T10:03:00,pth,2.40
2023-10-16T10:05:00,pth,3.60
2023-10-16T10:07:00,pth,3.60
2023-10-16T10:08:00,pth,1.20
2023-10-16T10:10:00,pth,1.20
2023-10-16T10:11:00,pth,1.20
2023-10-16T10:12:00,pth,1.20
2023-10-16T10:14:00,pth,2.40
2023-10-16T10:15:00,pth,1.20
2023-10-16T10:17:00,pth,1.20
2023-10-16T10:19:00,pth,2.40
2023-10-16T10:21:00,pth,1.20
2023-10-16T10:22:00,pth,1.20
2023-10-16T10:23:00,pth,1.20
2023-10-16T10:25:00,pth,1.20
2023-10-16T10:27:00,pth,2.40
2023-10-16T10:29:00,pth,1.20
2023-10-16T10:31:00,pth,2.40
2023-10-16T10:33:00,pth,2.40
2023-10-16T10:35:00,pth,1.20
2023-10-16T10:37:00,pth,1.20
2023-10-16T10:39:00,pth,2.40
2023-10-16T10:42:00,pth,2.40
2023-10-16T10:44:00,pth,2.40
2023-10-16T10:46:00,pth,2.40
2023-10-16T10:48:00,pth,3.60
2023-10-16T10:49:00,pth,2.40
2023-10-16T10:50:00,pth,1.20
2023-10-16T10:52:00,pth,3.60
2023-10-16T10:54:00,pth,2.40
2023-10-16T10:56:00,pth,1.20
2023-10-16T10:57:00,pth,1.20
2023-10-16T11:00:00,pth,2.40
2023-10-16T11:02:00,pth,2.40
2023-10-16T11:03:00,pth,1.20
2023-10-16T11:06:00,pth,2.40
2023-10-16T11:08:00,pth,1.20
2023-10-16T11:10:00,pth,1.20
2023-10-16T11:12:00,pth,2.40
2023-10-16T11:14:00,pth,1.20
2023-10-16T11:16:00,pth,1.20
2023-10-16T11:17:00,pth,1.20
2023-10-16T11:19:00,pth,2.40
2023-10-16T11:22:00,pth,3.60
2023-10-16T11:23:00,pth,3.60
2023-10-16T11:24:00,pth,4.80
2023-10-16T11:26:00,pth,8.40
2023-10-16T11:28:00,pth,6.00
2023-10-16T11:30:00,pth,4.80
2023-10-16T11:32:00,pth,6.00
2023-10-16T11:34:00,pth,7.20
2023-10-16T11:35:00,pth,3.60
2023-10-16T11:37:00,pth,3.60
2023-10-16T11:39:00,pth,4.80
2023-10-16T11:40:00,pth,1.20
2023-10-16T11:42:00,pth,1.20
2023-10-16T11:43:00,pth,1.20
2023-10-16T11:45:00,pth,3.60
2023-10-16T11:47:00,pth,2.40
2023-10-16T11:49:00,pth,3.60
2023-10-16T11:51:00,pth,1.20
2023-10-16T11:53:00,pth,1.20
2023-10-16T11:55:00,pth,2.40
2023-10-16T11:57:00,pth,1.20
2023-10-16T11:59:00,pth,2.40
2023-10-16T12:01:00,pth,2.40
2023-10-16T12:03:00,pth,2.40
2023-10-16T12:05:00,pth,2.40
2023-10-16T12:07:00,pth,1.20
2023-10-16T12:08:00,pth,1.20
2023-10-16T12:10:00,pth,1.20
2023-10-16T12:11:00,pth,1.20
2023-10-16T12:12:00,pth,1.20
2023-10-16T12:14:00,pth,2.40
2023-10-16T12:15:00,pth,1.20
2023-10-16T12:17:00,pth,2.40
2023-10-16T12:18:00,pth,1.20
2023-10-16T12:19:00,pth,1.20
2023-10-16T12:20:00,pth,1.20
2023-10-16T12:22:00,pth,3.60
2023-10-16T12:24:00,pth,4.80
2023-10-16T12:25:00,pth,1.20
2023-10-16T12:27:00,pth,3.60
2023-10-16T12:29:00,pth,1.20
2023-10-16T12:30:00,pth,1.20
2023-10-16T12:31:00,pth,1.20
2023-10-16T12:33:00,pth,1.20
2023-10-16T12:34:00,pth,1.20
2023-10-16T12:35:00,pth,1.20
2023-10-16T12:37:00,pth,1.20
2023-10-16T12:39:00,pth,2.40
2023-10-16T12:41:00,pth,3.60
2023-10-16T12:43:00,pth,2.40
2023-10-16T12:44:00,pth,1.20
2023-10-16T12:46:00,pth,2.40
2023-10-16T12:47:00,pth,1.20
2023-10-16T12:49:00,pth,2.40
2023-10-16T12:51:00,pth,1.20
2023-10-16T12:53:00,pth,2.40
2023-10-16T12:54:00,pth,1.20
2023-10-16T12:56:00,pth,2.40
2023-10-16T12:58:00,pth,1.20
2023-10-16T13:00:00,pth,2.40
2023-10-16T13:02:00,pth,2.40
2023-10-16T13:03:00,pth,1.20
2023-10-16T13:05:00,pth,2.40
2023-10-16T13:07:00,pth,2.40
2023-10-16T13:08:00,pth,1.20
2023-10-16T13:10:00,pth,2.40
2023-10-16T13:12:00,pth,3.60
2023-10-16T13:13:00,pth,1.20
2023-10-16T13:15:00,pth,4.80
2023-10-16T13:17:00,pth,2.40
2023-10-16T13:18:00,pth,1.20
2023-10-16T13:20:00,pth,1.20
2023-10-16T13:22:00,pth,2.40
2023-10-16T13:23:00,pth,1.20
2023-10-16T13:25:00,pth,2.40
2023-10-16T13:27:00,pth,2.40
2023-10-16T13:30:00,pth,2.40
2023-10-16T13:32:00,pth,1.20
2023-10-16T13:33:00,pth,1.20
2023-10-16T13:34:00,pth,1.20
2023-10-16T13:36:00,pth,1.20
2023-10-16T13:37:00,pth,1.20
2023-10-16T13:39:00,pth,2.40
2023-10-16T13:41:00,pth,2.40
2023-10-16T13:43:00,pth,1.20
2023-10-16T13:44:00,pth,1.20
2023-10-16T13:45:00,pth,1.20
2023-10-16T13:46:00,pth,1.20
2023-10-16T13:48:00,pth,1.20
2023-10-16T13:49:00,pth,1.20
2023-10-16T13:50:00,pth,1.20
2023-10-16T13:53:00,pth,2.40
2023-10-16T13:54:00,pth,1.20
2023-10-16T13:56:00,pth,2.40
2023-10-16T13:58:00,pth,1.20
2023-10-16T14:00:00,pth,1.20
2023-10-16T14:02:00,pth,2.40
2023-10-16T14:04:00,pth,4.80
2023-10-16T14:05:00,pth,1.20
2023-10-16T14:07:00,pth,4.80
2023-10-16T14:09:00,pth,2.40
2023-10-16T14:11:00,pth,1.20
2023-10-16T14:12:00,pth,1.20
2023-10-16T14:13:00,pth,1.20
2023-10-16T14:15:00,pth,2.40
2023-10-16T14:17:00,pth,1.20
2023-10-16T14:18:00,pth,1.20
2023-10-16T14:20:00,pth,2.40
2023-10-16T14:22:00,pth,1.20
2023-10-16T14:24:00,pth,1.20
2023-10-16T14:25:00,pth,1.20
2023-10-16T14:27:00,pth,2.40
2023-10-16T14:30:00,pth,2.40
2023-10-16T14:32:00,pth,1.20
2023-10-16T14:34:00,pth,1.20
2023-10-16T14:35:00,pth,1.20
2023-10-16T14:37:00,pth,1.20
2023-10-16T14:38:00,pth,1.20
2023-10-16T14:40:00,pth,1.20
2023-10-16T14:42:00,pth,1.20
2023-10-16T14:43:00,pth,1.20
2023-10-16T14:45:00,pth,1.20
2023-10-16T14:47:00,pth,2.40
2023-10-16T14:49:00,pth,1.20
2023-10-16T14:51:00,pth,1.20
2023-10-16T14:52:00,pth,1.20
2023-10-16T14:54:00,pth,1.20
2023-10-16T14:55:00,pth,1.20
2023-10-16T14:57:00,pth,1.20
2023-10-16T14:58:00,pth,1.20
2023-10-16T14:59:00,pth,2.40
2023-10-16T15:01:00,pth,2.40
2023-10-16T15:02:00,pth,2.40
2023-10-16T15:04:00,pth,3.60
2023-10-16T15:06:00,pth,1.20
2023-10-16T15:08:00,pth,1.20
2023-10-16T15:09:00,pth,1.20
2023-10-16T15:10:00,pth,1.20
2023-10-16T15:12:00,pth,1.20
2023-10-16T15:13:00,pth,1.20
2023-10-16T15:14:00,pth,1.20
2023-10-16T15:16:00,pth,1.20
2023-10-16T15:17:00,pth,1.20
2023-10-16T15:19:00,pth,1.20
2023-10-16T15:21:00,pth,1.20
2023-10-16T15:23:00,pth,2.40
2023-10-16T15:24:00,pth,1.20
2023-10-16T15:26:00,pth,1.20
2023-10-16T15:28:00,pth,2.40
2023-10-16T15:31:00,pth,2.40
2023-10-16T15:33:00,pth,2.40
2023-10-16T15:35:00,pth,1.20
2023-10-16T15:37:00,pth,2.40
2023-10-16T15:39:00,pth,1.20
2023-10-16T15:41:00,pth,2.40
2023-10-16T15:42:00,pth,1.20
2023-10-16T15:43:00,pth,1.20
2023-10-16T15:44:00,pth,1.20
2023-10-16T15:46:00,pth,2.40
2023-10-16T15:47:00,pth,1.20
2023-10-16T15:49:00,pth,2.40
2023-10-16T15:51:00,pth,1.20
2023-10-16T15:53:00,pth,1.20
2023-10-16T15:54:00,pth,1.20
2023-10-16T15:56:00,pth,1.20
2023-10-16T15:58:00,pth,2.40
2023-10-16T16:00:00,pth,4.80
2023-10-16T16:02:00,pth,3.60
2023-10-16T16:04:00,pth,3.60
2023-10-16T16:06:00,pth,1.20
2023-10-16T16:08:00,pth,3.60
2023-10-16T16:09:00,pth,7.20
2023-10-16T16:11:00,pth,12.00
2023-10-16T16:12:00,pth,7.20
2023-10-16T16:14:00,pth,12.00
2023-10-16T16:15:00,pth,7.20
2023-10-16T16:16:00,pth,6.00
2023-10-16T16:17:00,pth,7.20
2023-10-16T16:19:00,pth,14.40
2023-10-16T16:21:00,pth,18.00
2023-10-16T16:22:00,pth,8.40
2023-10-16T16:23:00,pth,9.60
2023-10-16T16:25:00,pth,19.20
2023-10-16T16:26:00,pth,9.60
2023-10-16T16:28:00,pth,18.00
2023-10-16T16:30:00,pth,19.20
2023-10-16T16:31:00,pth,7.20
2023-10-16T16:33:00,pth,14.40
2023-10-16T16:34:00,pth,8.40
2023-10-16T16:35:00,pth,7.20
2023-10-16T16:37:00,pth,14.40
2023-10-16T16:39:00,pth,13.20
2023-10-16T16:41:00,pth,6.00
2023-10-16T16:42:00,pth,6.00
2023-10-16T16:44:00,pth,13.20
2023-10-16T16:45:00,pth,6.00
2023-10-16T16:46:00,pth,8.40
2023-10-16T16:48:00,pth,18.00
2023-10-16T16:49:00,pth,8.40
2023-10-16T16:51:00,pth,7.20
2023-10-16T16:53:00,pth,15.60
2023-10-16T16:55:00,pth,19.20
2023-10-16T16:56:00,pth,3.60
2023-10-16T16:58:00,pth,4.80
2023-10-16T17:00:00,pth,15.60
2023-10-16T17:02:00,pth,13.20
2023-10-16T17:04:00,pth,4.80
2023-10-16T17:05:00,pth,4.80
2023-10-16T17:06:00,pth,6.00
2023-10-16T17:08:00,pth,6.00
2023-10-16T17:11:00,pth,2.40
2023-10-16T17:12:00,pth,1.20
2023-10-16T17:14:00,pth,2.40
2023-10-16T17:15:00,pth,1.20
2023-10-16T17:17:00,pth,2.40
2023-10-16T17:18:00,pth,2.40
2023-10-16T17:20:00,pth,2.40
2023-10-16T17:21:00,pth,6.00
2023-10-16T17:23:00,pth,13.20
2023-10-16T17:25:00,pth,13.20
2023-10-16T17:26:00,pth,6.00
2023-10-16T17:28:00,pth,13.20
2023-10-16T17:30:00,pth,14.40
2023-10-16T17:31:00,pth,6.00
2023-10-16T17:33:00,pth,13.20
2023-10-16T17:35:00,pth,14.40
2023-10-16T17:36:00,pth,6.00
2023-10-16T17:38:00,pth,14.40
2023-10-16T17:40:00,pth,15.60
2023-10-16T17:41:00,pth,7.20
2023-10-16T17:43:00,pth,15.60
2023-10-16T17:45:00,pth,14.40
2023-10-16T17:46:00,pth,8.40
2023-10-16T17:48:00,pth,14.40
2023-10-16T17:50:00,pth,13.20
2023-10-16T17:52:00,pth,14.40
2023-10-16T17:54:00,pth,15.60
2023-10-16T17:56:00,pth,14.40
2023-10-16T17:57:00,pth,7.20
2023-10-16T17:59:00,pth,16.80
2023-10-16T18:00:00,pth,8.40
2023-10-16T18:01:00,pth,8.40
2023-10-16T18:03:00,pth,16.80
2023-10-16T18:04:00,pth,8.40
2023-10-16T18:06:00,pth,16.80
2023-10-16T18:07:00,pth,8.40
2023-10-16T18:08:00,pth,8.40
2023-10-16T18:10:00,pth,18.00
2023-10-16T18:11:00,pth,8.40
2023-10-16T18:13:00,pth,10.80
2023-10-16T18:15:00,pth,8.40
2023-10-16T18:16:00,pth,9.60
2023-10-16T18:18:00,pth,19.20
2023-10-16T18:19:00,pth,9.60
2023-10-16T18:21:00,pth,8.40
2023-10-16T18:23:00,pth,6.00
2023-10-16T18:24:00,pth,3.60
2023-10-16T18:26:00,pth,7.20
2023-10-16T18:27:00,pth,2.40
2023-10-16T18:28:00,pth,3.60
2023-10-16T18:30:00,pth,6.00
2023-10-16T18:31:00,pth,3.60
2023-10-16T18:33:00,pth,6.00
2023-10-16T18:35:00,pth,6.00
2023-10-16T18:36:00,pth,4.80
2023-10-16T18:38:00,pth,2.40
2023-10-16T18:39:00,pth,1.20
2023-10-16T18:41:00,pth,3.60
2023-10-16T18:43:00,pth,2.40
2023-10-16T18:45:00,pth,2.40
2023-10-16T18:46:00,pth,1.20
2023-10-16T18:48:00,pth,2.40
2023-10-16T18:50:00,pth,2.40
2023-10-16T18:51:00,pth,1.20
2023-10-16T18:53:00,pth,2.40
2023-10-16T18:54:00,pth,7.20
2023-10-16T18:56:00,pth,14.40
2023-10-16T18:57:00,pth,7.20
2023-10-16T18:58:00,pth,7.20
2023-10-16T19:00:00,pth,13.20
2023-10-16T19:01:00,pth,7.20
2023-10-16T19:02:00,pth,6.00
2023-10-16T19:03:00,pth,7.20
2023-10-16T19:05:00,pth,13.20
2023-10-16T19:06:00,pth,7.20
2023-10-16T19:08:00,pth,13.20
2023-10-16T19:10:00,pth,14.40
2023-10-16T19:12:00,pth,14.40
2023-10-16T19:14:00,pth,13.20
2023-10-16T19:16:00,pth,14.40
2023-10-16T19:17:00,pth,7.20
2023-10-16T19:19:00,pth,15.60
2023-10-16T19:21:00,pth,15.60
2023-10-16T19:23:00,pth,16.80
2023-10-16T19:24:00,pth,8.40
2023-10-16T19:26:00,pth,14.40
2023-10-16T19:28:00,pth,6.00
2023-10-16T19:29:00,pth,1.20
2023-10-16T19:30:00,pth,6.00
2023-10-16T19:32:00,pth,13.20
2023-10-16T19:34:00,pth,4.80
2023-10-16T19:36:00,pth,4.80
2023-10-16T19:37:00,pth,7.20
2023-10-16T19:39:00,pth,12.00
2023-10-16T19:41:00,pth,2.40
2023-10-16T19:42:00,pth,1.20
2023-10-16T19:43:00,pth,7.20
2023-10-16T19:45:00,pth,13.20
2023-10-16T19:46:00,pth,2.40
2023-10-16T19:48:00,pth,3.60
2023-10-16T19:49:00,pth,6.00
2023-10-16T19:51:00,pth,16.80
2023-10-16T19:53:00,pth,8.40
2023-10-16T19:55:00,pth,8.40
2023-10-16T19:56:00,pth,1.20
2023-10-16T19:57:00,pth,1.20
2023-10-16T19:59:00,pth,3.60
2023-10-16T20:01:00,pth,3.60
2023-10-16T20:03:00,pth,2.40
2023-10-16T20:05:00,pth,3.60
2023-10-16T20:06:00,pth,1.20
2023-10-16T20:07:00,pth,1.20
2023-10-16T20:08:00,pth,1.20
2023-10-16T20:10:00,pth,2.40
2023-10-16T20:12:00,pth,3.60
2023-10-16T20:14:00,pth,2.40
2023-10-16T20:15:00,pth,1.20
2023-10-16T20:17:00,pth,2.40
2023-10-16T20:18:00,pth,2.40
2023-10-16T20:20:00,pth,2.40
2023-10-16T20:22:00,pth,2.40
2023-10-16T20:24:00,pth,3.60
2023-10-16T20:25:00,pth,1.20
2023-10-16T20:27:00,pth,3.60
2023-10-16T20:28:00,pth,1.20
2023-10-16T20:30:00,pth,3.60
2023-10-16T20:32:00,pth,2.40
2023-10-16T20:33:00,pth,2.40
2023-10-16T20:34:00,pth,1.20
2023-10-16T20:36:00,pth,2.40
2023-10-16T20:37:00,pth,2.40
2023-10-16T20:38:00,pth,1.20
2023-10-16T20:39:00,pth,1.20
2023-10-16T20:41:00,pth,2.40
2023-10-16T20:42:00,pth,1.20
2023-10-16T20:44:00,pth,3.60
2023-10-16T20:46:00,pth,2.40
2023-10-16T20:48:00,pth,3.60
2023-10-16T20:50:00,pth,4.80
2023-10-16T20:52:00,pth,2.40
2023-10-16T20:53:00,pth,2.40
2023-10-16T20:54:00,pth,1.20
2023-10-16T20:56:00,pth,2.40
2023-10-16T20:58:00,pth,3.60
2023-10-16T20:59:00,pth,1.20
2023-10-16T21:01:00,pth,3.60
2023-10-16T21:03:00,pth,2.40
2023-10-16T21:05:00,pth,2.40
2023-10-16T21:07:00,pth,2.40
2023-10-16T21:09:00,pth,3.60
2023-10-16T21:11:00,pth,2.40
2023-10-16T21:13:00,pth,2.40
2023-10-16T21:14:00,pth,1.20
2023-10-16T21:16:00,pth,3.60
2023-10-16T21:17:00,pth,1.20
2023-10-16T21:18:00,pth,1.20
2023-10-16T21:20:00,pth,2.40
2023-10-16T21:21:00,pth,2.40
2023-10-16T21:23:00,pth,2.40
2023-10-16T21:24:00,pth,1.20
2023-10-16T21:26:00,pth,13.20
2023-10-16T21:28:00,pth,18.00
2023-10-16T21:30:00,pth,18.00
2023-10-16T21:31:00,pth,8.40
2023-10-16T21:33:00,pth,7.20
2023-10-16T21:35:00,pth,13.20
2023-10-16T21:36:00,pth,3.60
2023-10-16T21:38:00,pth,8.40
2023-10-16T21:40:00,pth,13.20
2023-10-16T21:42:00,pth,6.00
2023-10-16T21:44:00,pth,16.80
2023-10-16T21:46:00,pth,6.00
2023-10-16T21:48:00,pth,13.20
2023-10-16T21:49:00,pth,2.40
2023-10-16T21:50:00,pth,2.40
2023-10-16T21:52:00,pth,13.20
2023-10-16T21:53:00,pth,3.60
2023-10-16T21:55:00,pth,6.00
2023-10-16T21:57:00,pth,12.00
2023-10-16T21:58:00,pth,2.40
2023-10-16T22:00:00,pth,3.60
2023-10-16T22:02:00,pth,2.40
2023-10-16T22:03:00,pth,1.20
2023-10-16T22:05:00,pth,3.60
2023-10-16T22:06:00,pth,1.20
2023-10-16T22:08:00,pth,3.60
2023-10-16T22:09:00,pth,2.40
2023-10-16T22:11:00,pth,3.60
2023-10-16T22:13:00,pth,3.60
2023-10-16T22:14:00,pth,1.20
2023-10-16T22:15:00,pth,6.00
2023-10-16T22:17:00,pth,14.40
2023-10-16T22:19:00,pth,14.40
2023-10-16T22:20:00,pth,7.20
2023-10-16T22:21:00,pth,7.20
2023-10-16T22:23:00,pth,14.40
2023-10-16T22:25:00,pth,13.20
2023-10-16T22:27:00,pth,13.20
2023-10-16T22:28:00,pth,7.20
2023-10-16T22:30:00,pth,14.40
2023-10-16T22:32:00,pth,15.60
2023-10-16T22:34:00,pth,13.20
2023-10-16T22:36:00,pth,10.80
2023-10-16T22:38:00,pth,15.60
2023-10-16T22:40:00,pth,4.80
2023-10-16T22:42:00,pth,13.20
2023-10-16T22:43:00,pth,4.80
2023-10-16T22:45:00,pth,3.60
2023-10-16T22:46:00,pth,6.00
2023-10-16T22:48:00,pth,10.80
2023-10-16T22:50:00,pth,7.20